Location: ?????????
(53.2086°N, 54.0693°E)
Time: 13:41:32
(UTC+00:00)

NOSS 3-1 (C) - Pass Details

Date: 08 December 2019
Orbit: 763 x 1445 km, 63.4° (Epoch: 19 January)

Event Time Altitude Azimuth Distance (km) Brightness Sun altitude
Rises 15:42:25 0° 311° (NW) 3,812 7.3 -30.9°
Reaches altitude 10° 15:44:53 10° 312° (NW) 2,948 6.6 -31.3°
Enters shadow 15:51:54 79° 24° (NNE) 1,253 3.8 -32.3°
